Location: São Paulo
(23.5507°S, 46.6334°W)
Time: 19:17:11
(UTC-03:00)

Vanguard 2 Rocket - Pass Details

Date: 23 February 2026
Orbit: 553 x 3286 km, 32.9° (Epoch: 11 March)

Event Time Altitude Azimuth Distance (km) Brightness Sun altitude
Exits shadow 04:36:45 14° 244° (WSW) 2,814 9.0 -19.0°
Maximum altitude 04:43:48 87° 156° (SSE) 1,684 8.2 -17.5°
Drops below altitude 10° 04:58:10 10° 65° (ENE) 5,303 11.5 -14.3°
Sets 05:03:09 0° 64° (ENE) 6,666 12.1 -13.2°
